Meteo pe oră la Abdukarim

Astăzi, 5 August, Joi

Timp Temperatura Precipitaţii Vânt Presiune Umiditate
00:00 +28°C° 0 mm 2 m/s 693 mmHg 23%
01:00 +28°C° 0 mm 2 m/s 693 mmHg 24%
02:00 +27°C° 0 mm 2 m/s 693 mmHg 24%
03:00 +27°C° 0 mm 2 m/s 693 mmHg 25%
04:00 +26°C° 0 mm 2 m/s 693 mmHg 25%
05:00 +26°C° 0 mm 1 m/s 693 mmHg 26%
06:00 +28°C° 0 mm 2 m/s 693 mmHg 24%
07:00 +29°C° 0 mm 2 m/s 693 mmHg 22%
08:00 +31°C° 0 mm 2 m/s 694 mmHg 19%
09:00 +33°C° 0 mm 3 m/s 694 mmHg 17%
10:00 +35°C° 0 mm 4 m/s 694 mmHg 15%
11:00 +36°C° 0 mm 5 m/s 694 mmHg 13%
12:00 +37°C° 0 mm 5 m/s 693 mmHg 13%
13:00 +39°C° 0 mm 5 m/s 693 mmHg 12%
14:00 +39°C° 0 mm 5 m/s 693 mmHg 12%
15:00 +39°C° 0 mm 5 m/s 693 mmHg 11%
16:00 +39°C° 0 mm 5 m/s 693 mmHg 11%
17:00 +39°C° 0 mm 5 m/s 692 mmHg 11%
18:00 +36°C° 0 mm 4 m/s 692 mmHg 13%
19:00 +34°C° 0 mm 3 m/s 692 mmHg 15%
20:00 +31°C° 0 mm 2 m/s 692 mmHg 16%
21:00 +31°C° 0 mm 2 m/s 692 mmHg 18%
22:00 +30°C° 0 mm 3 m/s 692 mmHg 20%
23:00 +29°C° 0 mm 3 m/s 692 mmHg 22%

Mâine, 6 August, Vineri

Timp Temperatura Precipitaţii Vânt Presiune Umiditate
00:00 +28°C° 0 mm 3 m/s 691 mmHg 23%
01:00 +27°C° 0 mm 2 m/s 691 mmHg 23%
02:00 +27°C° 0 mm 2 m/s 691 mmHg 24%
03:00 +26°C° 0 mm 2 m/s 691 mmHg 24%
04:00 +26°C° 0 mm 2 m/s 691 mmHg 24%
05:00 +26°C° 0 mm 2 m/s 691 mmHg 25%
06:00 +27°C° 0 mm 2 m/s 692 mmHg 22%
07:00 +29°C° 0 mm 2 m/s 692 mmHg 20%
08:00 +30°C° 0 mm 3 m/s 693 mmHg 17%
09:00 +33°C° 0 mm 4 m/s 693 mmHg 16%
10:00 +34°C° 0 mm 5 m/s 693 mmHg 15%
11:00 +36°C° 0 mm 6 m/s 693 mmHg 15%
12:00 +38°C° 0 mm 6 m/s 693 mmHg 14%
13:00 +39°C° 0 mm 6 m/s 693 mmHg 14%
14:00 +40°C° 0 mm 6 m/s 692 mmHg 13%
15:00 +40°C° 0 mm 6 m/s 692 mmHg 13%
16:00 +40°C° 0 mm 6 m/s 692 mmHg 13%
17:00 +40°C° 0 mm 5 m/s 692 mmHg 13%
18:00 +37°C° 0 mm 5 m/s 692 mmHg 14%
19:00 +35°C° 0 mm 4 m/s 692 mmHg 16%
20:00 +33°C° 0 mm 3 m/s 692 mmHg 17%
21:00 +31°C° 0 mm 3 m/s 692 mmHg 17%
22:00 +30°C° 0 mm 3 m/s 692 mmHg 17%
23:00 +29°C° 0 mm 3 m/s 692 mmHg 17%

Poimâine, 7 August, Sâmbătă

Timp Temperatura Precipitaţii Vânt Presiune Umiditate
00:00 +29°C° 0 mm 3 m/s 692 mmHg 17%
01:00 +28°C° 0 mm 2 m/s 692 mmHg 18%
02:00 +27°C° 0 mm 2 m/s 692 mmHg 19%
03:00 +27°C° 0 mm 2 m/s 692 mmHg 20%
04:00 +27°C° 0 mm 2 m/s 692 mmHg 21%
05:00 +26°C° 0 mm 2 m/s 692 mmHg 22%
06:00 +28°C° 0 mm 2 m/s 692 mmHg 20%
07:00 +30°C° 0 mm 2 m/s 693 mmHg 18%
08:00 +33°C° 0 mm 3 m/s 693 mmHg 16%
09:00 +34°C° 0 mm 4 m/s 694 mmHg 15%
10:00 +36°C° 0 mm 5 m/s 694 mmHg 14%
11:00 +38°C° 0 mm 7 m/s 694 mmHg 12%
12:00 +39°C° 0 mm 7 m/s 694 mmHg 12%
13:00 +40°C° 0 mm 7 m/s 693 mmHg 11%
14:00 +40°C° 0 mm 7 m/s 693 mmHg 11%
15:00 +40°C° 0 mm 7 m/s 693 mmHg 11%
16:00 +40°C° 0 mm 7 m/s 693 mmHg 11%
17:00 +40°C° 0 mm 7 m/s 693 mmHg 12%
18:00 +38°C° 0 mm 6 m/s 693 mmHg 14%
19:00 +35°C° 0 mm 4 m/s 693 mmHg 16%
20:00 +31°C° 0 mm 3 m/s 693 mmHg 18%
21:00 +31°C° 0 mm 2 m/s 693 mmHg 20%
22:00 +30°C° 0 mm 2 m/s 693 mmHg 21%
23:00 +29°C° 0 mm 2 m/s 693 mmHg 23%

8 August, Duminică

Timp Temperatura Precipitaţii Vânt Presiune Umiditate
00:00 +28°C° 0 mm 2 m/s 693 mmHg 23%
01:00 +28°C° 0 mm 2 m/s 693 mmHg 23%
02:00 +28°C° 0 mm 1 m/s 693 mmHg 23%
03:00 +27°C° 0 mm 2 m/s 693 mmHg 23%
04:00 +27°C° 0 mm 2 m/s 693 mmHg 23%
05:00 +27°C° 0 mm 2 m/s 694 mmHg 23%
06:00 +29°C° 0 mm 2 m/s 694 mmHg 21%
07:00 +31°C° 0 mm 2 m/s 694 mmHg 18%
08:00 +32°C° 0 mm 2 m/s 695 mmHg 16%
09:00 +35°C° 0 mm 3 m/s 695 mmHg 14%
10:00 +37°C° 0 mm 5 m/s 695 mmHg 13%
11:00 +39°C° 0 mm 6 m/s 695 mmHg 12%
12:00 +40°C° 0 mm 6 m/s 695 mmHg 11%
13:00 +41°C° 0 mm 6 m/s 695 mmHg 10%
14:00 +41°C° 0 mm 6 m/s 695 mmHg 9%
15:00 +41°C° 0 mm 7 m/s 695 mmHg 9%
16:00 +41°C° 0 mm 7 m/s 695 mmHg 9%
17:00 +41°C° 0 mm 7 m/s 695 mmHg 9%
18:00 +38°C° 0 mm 6 m/s 694 mmHg 11%
19:00 +35°C° 0 mm 5 m/s 694 mmHg 12%
20:00 +33°C° 0 mm 3 m/s 694 mmHg 14%
21:00 +31°C° 0 mm 3 m/s 694 mmHg 15%
22:00 +31°C° 0 mm 3 m/s 694 mmHg 16%
23:00 +30°C° 0 mm 3 m/s 694 mmHg 17%

9 August, Luni

Timp Temperatura Precipitaţii Vânt Presiune Umiditate
00:00 +30°C° 0 mm 3 m/s 694 mmHg 18%
01:00 +29°C° 0 mm 3 m/s 694 mmHg 19%
02:00 +28°C° 0 mm 3 m/s 694 mmHg 20%
03:00 +28°C° 0 mm 3 m/s 694 mmHg 22%
04:00 +27°C° 0 mm 2 m/s 694 mmHg 24%
05:00 +26°C° 0 mm 2 m/s 694 mmHg 26%
06:00 +28°C° 0 mm 3 m/s 694 mmHg 24%
07:00 +29°C° 0 mm 3 m/s 695 mmHg 21%
08:00 +32°C° 0 mm 4 m/s 695 mmHg 19%
09:00 +33°C° 0 mm 4 m/s 695 mmHg 17%
10:00 +35°C° 0 mm 5 m/s 696 mmHg 16%
11:00 +36°C° 0 mm 6 m/s 696 mmHg 14%
12:00 +38°C° 0 mm 6 m/s 696 mmHg 14%
13:00 +39°C° 0 mm 7 m/s 696 mmHg 13%
14:00 +40°C° 0 mm 7 m/s 696 mmHg 13%
15:00 +40°C° 0 mm 7 m/s 696 mmHg 12%
16:00 +39°C° 0 mm 7 m/s 696 mmHg 12%
17:00 +39°C° 0 mm 7 m/s 696 mmHg 11%
18:00 +36°C° 0 mm 7 m/s 696 mmHg 13%
19:00 +33°C° 0 mm 6 m/s 696 mmHg 15%
20:00 +30°C° 0 mm 5 m/s 696 mmHg 17%
21:00 +29°C° 0 mm 5 m/s 696 mmHg 19%
22:00 +28°C° 0 mm 4 m/s 696 mmHg 21%
23:00 +27°C° 0 mm 4 m/s 696 mmHg 22%

10 August, Marţi

Timp Temperatura Precipitaţii Vânt Presiune Umiditate
00:00 +27°C° 0 mm 4 m/s 696 mmHg 23%
01:00 +26°C° 0 mm 4 m/s 695 mmHg 23%
02:00 +25°C° 0 mm 3 m/s 695 mmHg 24%
03:00 +25°C° 0 mm 3 m/s 695 mmHg 24%
04:00 +24°C° 0 mm 3 m/s 695 mmHg 24%
05:00 +24°C° 0 mm 3 m/s 695 mmHg 24%
06:00 +25°C° 0 mm 3 m/s 695 mmHg 22%
07:00 +27°C° 0 mm 3 m/s 695 mmHg 20%
08:00 +28°C° 0 mm 4 m/s 696 mmHg 18%
09:00 +30°C° 0 mm 5 m/s 696 mmHg 16%
10:00 +32°C° 0 mm 5 m/s 696 mmHg 14%
11:00 +34°C° 0 mm 6 m/s 696 mmHg 12%
12:00 +35°C° 0 mm 6 m/s 695 mmHg 11%
13:00 +36°C° 0 mm 6 m/s 695 mmHg 10%
14:00 +38°C° 0 mm 6 m/s 695 mmHg 9%
15:00 +38°C° 0 mm 6 m/s 695 mmHg 9%
16:00 +38°C° 0 mm 6 m/s 695 mmHg 9%
17:00 +38°C° 0 mm 6 m/s 694 mmHg 8%
18:00 +35°C° 0 mm 5 m/s 694 mmHg 10%
19:00 +32°C° 0 mm 4 m/s 694 mmHg 11%
20:00 +29°C° 0 mm 3 m/s 694 mmHg 12%
21:00 +28°C° 0 mm 3 m/s 694 mmHg 13%
22:00 +28°C° 0 mm 3 m/s 694 mmHg 14%
23:00 +27°C° 0 mm 3 m/s 694 mmHg 15%
Arată mai mult

Formular de consimțământ

Meteoprog și furnizorii noștri de servicii pot stoca și accesa date personale, precum cookies, identificatori de dispozitiv sau alte tehnologii similare pe dispozitivul dumneavoastră și procesa astfel de date pentru a personaliza conținutul și reclamele, dar și pentru a oferi caracteristici de social media și pentru a analiza traficul.

  • Stocarea și/sau accesarea informațiilor pe dispozitivul dumneavoastră

    Cookies, identificatori de dispozitiv sau alte informații pot fi stocate sau accesate pe dispozitiv în scopurile indicate mai sus.

  • Reclame și conținut personalizat, evaluarea reclamelor și a conținutului, informații despre audiențe și dezvoltarea produselor

    Reclamele și conținutul pot fi personalizate pe baza unui profil. Pot fi adăugate date suplimentare pentru a personaliza mai bine reclamele și conținutul. Performanța reclamelor și conținutului poate fi măsurată. Pot fi obținute informații despre utilizatorii care au văzut reclamele și conținutul. Aceste date pot fi utilizate pentru a dezvolta sau îmbunătăți experiența utilizatorilor, sistemele și software-ul.

Dând clic pe ‘Sunt de acord’, permiteți utilizarea cookie-urilor menționate, a identificatorilor de dispozitiv, balizelor web sau altor tehnologii similare. Setările pot fi modificate din browser-ul dispozitivului dumneavoastră.

În anumite scopuri, interesele legitime pot prima asupra consimțământului. Puteți citi mai multe informații în acest sens în Politica privind Confidențialitatea Datelor și Cookie.